SCP
0 0 0 0 0 0 0 -0 -0 -0 -0 -0 -0 -0 -0 -0 -0 -0 -0 -0 -0 -0 -0 -0 0 0 0 -0 -0 -0 0 -0 0 0 0 0 0 0 -0 -0 0 -0 -0
-0 0 0 0 0 0 0 -0 -0 -0 -0 -0 -0 -0 -0 -0 -0 -0 -0 -0 -0 -0 -0 -0 0 0 0 -0 -0 -0 0 0 0 0 0 0 0 0 -0 -0 0 0 0
-0 -0 0 0 0 0 0 -0 -0 -0 -0 -0 -0 -0 -0 -0 -0 -0 -0 -0 0 0 -0 0 0 0 -0 -0 -0 0 -0 -0 -0 0 -0 -0 0 0 -0 0 0 0 0
-0 -0 0 0 0 0 0 0 0 -0 -0 -0 -0 -0 -0 -0 -0 0 0 0 0 0 -0 0 0 -0 -0 0 0 0 -0 -0 -0 -0 -0 -0 0 0 0 0 0 0 0
-0 -0 -0 -0 0 0 0 0 0 0 -0 -0 -0 -0 -0 -0 -0 -0 0 0 0 0 0 0 0 0 0 0 0 -0 -0 -0 0 0 0 -0 -0 0 0 0 0 -0 0
-0 -0 -0 -0 -0 0 0 0 0 0 0 0 -0 -0 -0 -0 -0 -0 0 0 0 -0 0 0 0 0 0 0 0 -0 -0 0 0 0 0 -0 0 0 0 -0 -0 -0 -0
-0 -0 -0 -0 -0 -0 0 -0 0 0 0 0 0 -0 -0 -0 -0 0 0 -0 -0 0 0 0 0 0 0 0 0 0 -0 0 0 0 0 0 0 0 -0 -0 -0 -0 -0
-0 -0 -0 -0 -0 -0 -0 -0 -0 0 0 0 -0 0 -0 0 0 0 -0 -0 -0 -0 -0 0 0 0 0 0 0 0 -0 -0 0 0 0 0 0 0 -0 -0 0 -0 -0
0 0 0 -0 -0 -0 -0 -0 -0 -0 0 0 -0 -0 -0 -0 0 -0 -0 0 -0 -0 0 0 0 0 -0 -0 -0 0 -0 -0 0 0 0 0 -0 -0 -0 -0 -0 -0 -0
0 0 0 0 0 0 -0 -0 -0 -0 -0 0 -0 -0 0 -0 0 -0 -0 0 0 -0 -0 0 0 0 -0 -0 -0 -0 0 0 -0 -0 -0 0 -0 -0 -0 -0 -0 -0 -0
0 0 0 0 0 0 0 0 -0 -0 -0 -0 -0 -0 -0 0 0 0 0 -0 0 -0 -0 0 -0 -0 -0 -0 -0 -0 -0 0 -0 -0 -0 -0 -0 -0 -0 -0 -0 -0 -0
0 0 0 0 0 0 0 0 0 -0 -0 -0 -0 -0 0 0 -0 0 0 -0 0 0 0 -0 -0 -0 0 -0 -0 0 -0 -0 -0 -0 -0 -0 0 -0 -0 -0 -0 -0 -0
0 0 0 0 0 0 0 0 0 0 0 -0 -0 -0 0 0 -0 -0 -0 -0 -0 -0 -0 0 0 -0 -0 -0 0 -0 0 0 0 -0 -0 -0 0 -0 -0 -0 -0 -0 -0
0 0 0 0 0 0 0 0 0 0 0 0 0 -0 0 0 0 -0 -0 -0 -0 -0 -0 -0 0 0 0 0 0 0 0 0 0 0 -0 0 0 -0 -0 -0 -0 -0 -0
0 0 0 0 0 0 0 0 0 0 0 0 0 0 -0 0 0 -0 -0 -0 -0 -0 -0 -0 0 0 0 0 0 0 0 0 0 0 0 -0 0 -0 -0 -0 -0 -0 -0
0 0 0 0 0 0 0 0 0 0 0 0 0 0 0 -0 -0 -0 -0 -0 -0 -0 -0 -0 -0 -0 0 0 0 0 0 0 0 0 0 0 0 -0 -0 -0 -0 -0 -0
0 0 0 0 0 0 0 0 0 1 0 0 0 0 0 0 0 -0 -0 -0 -0 0 0 0 -0 -0 -0 0 0 0 0 0 0 0 0 0 0 0 -0 -0 -0 -0 -0
0 0 0 0 0 0 0 0 1 0 0 1 0 0 0 0 0 0 0 -0 -0 -0 0 0 0 0 0 0 0 0 0 0 0 0 0 0 0 0 -0 -0 -0 -0 -0
0 0 0 0 0 0 0 0 1 1 1 1 1 0 0 0 0 0 0 0 0 -0 -0 0 0 0 0 0 0 0 0 0 0 0 0 0 0 0 0 -0 -0 -0 -0
0 0 0 0 0 0 0 0 0 1 1 1 1 1 0 0 0 0 0 0 0 0 0 0 0 0 0 0 0 0 0 0 0 0 0 0 0 0 0 -0 -0 -0 -0
0 0 0 0 0 0 0 0 0 0 0 1 1 1 1 0 0 0 0 0 0 0 0 0 0 0 0 0 0 0 0 0 0 0 0 0 0 -0 0 0 0 0 -0
0 0 0 0 0 0 0 0 0 0 0 0 1 1 1 1 1 1 1 0 0 0 0 0 0 0 0 0 0 0 0 0 0 0 0 0 0 0 0 0 0 0 -0
0 0 0 0 0 0 0 0 0 0 0 0 0 1 1 1 1 1 1 1 0 0 0 0 0 0 0 0 0 0 0 0 0 0 0 0 0 0 0 0 0 0 0
0 0 0 0 0 0 0 0 0 0 0 0 0 0 0 1 1 1 1 1 1 1 0 0 0 0 0 0 0 0 0 0 0 0 0 0 0 0 0 0 0 0 0
0 0 0 0 0 0 0 0 0 0 0 0 0 0 0 0 1 1 1 0 1 1 1 0 0 0 0 0 0 0 0 0 0 0 0 -0 0 0 0 0 0 0 0
0 0 0 0 0 0 0 0 0 0 0 0 0 0 0 0 0 0 1 0 1 1 1 1 1 0 0 0 0 0 0 0 0 0 0 0 0 0 0 0 0 0 0
Wind_Speed_500mb
29 29 30 28 27 33 41 39 37 33 29 24 22 25 32 34 33 29 28 30 29 30 33 34 34 36 39 40 39 39 39 41 40 42 44 43 40 40 39 41 39 40 40
36 32 30 27 30 35 38 36 34 32 26 21 20 25 31 30 29 28 26 25 28 34 36 35 33 35 37 36 35 34 35 40 41 42 39 39 39 39 40 39 42 41 40
36 35 33 28 33 36 34 33 32 28 22 19 21 26 28 27 25 24 26 29 33 34 34 35 37 36 35 34 35 35 39 39 41 45 40 35 36 37 38 38 37 36 36
36 38 35 31 32 33 33 31 29 25 20 20 24 27 27 25 24 24 26 32 35 36 38 39 37 35 36 33 33 34 33 34 43 45 32 31 32 33 33 34 33 33 34
35 35 36 31 30 28 29 28 26 22 22 23 25 26 25 24 24 26 29 33 35 37 38 38 36 34 32 31 31 30 31 35 48 30 29 29 27 29 30 30 30 31 31
32 33 34 29 25 25 24 23 23 22 23 24 25 26 25 24 25 27 31 34 36 37 37 36 35 33 32 30 28 25 26 29 35 27 27 30 26 27 27 29 28 29 27
28 32 33 27 21 21 19 16 19 20 21 23 24 24 24 24 25 28 32 35 36 35 34 35 34 33 31 28 27 24 21 24 23 24 25 25 25 24 24 26 25 25 24
25 35 34 29 21 17 16 13 16 19 21 21 22 22 21 22 25 29 32 32 33 34 33 33 33 32 30 28 26 24 22 22 22 23 26 23 23 21 22 22 21 22 21
27 31 33 29 24 18 15 13 13 17 19 21 20 20 20 22 25 29 30 30 35 33 32 32 33 32 30 28 26 24 22 23 19 19 25 22 22 20 18 18 17 22 21
20 25 29 27 24 21 18 15 14 16 18 20 20 20 20 21 24 28 28 32 32 31 30 31 33 32 30 28 26 24 22 22 18 17 15 20 19 17 16 17 19 20 19
15 17 20 22 26 25 21 19 16 18 20 22 22 22 22 22 26 27 28 32 31 29 29 32 33 32 30 29 26 23 22 13 16 14 11 17 18 15 15 15 16 16 16
9 14 15 22 24 27 22 24 22 22 23 25 27 27 23 23 24 26 29 32 30 30 30 30 30 27 24 21 22 23 14 15 13 15 11 13 16 15 13 13 12 13 15
8 11 21 24 27 29 23 26 25 26 25 28 31 31 25 26 29 29 32 34 32 31 30 30 28 23 16 15 13 12 13 15 11 12 11 11 15 13 12 11 10 11 13
5 9 16 22 31 37 27 31 27 27 30 30 35 39 31 29 31 28 28 29 28 28 24 25 22 21 21 19 18 14 14 12 10 10 9 10 12 12 10 10 9 12 13
20 14 19 28 30 41 42 34 36 35 37 34 37 43 39 33 33 32 31 32 31 29 27 26 23 23 23 19 19 17 12 12 11 10 8 8 10 10 9 7 7 12 11
36 27 24 34 33 36 46 47 39 39 38 47 43 44 48 45 37 37 35 35 33 32 29 29 26 23 22 21 22 20 17 14 11 10 10 7 8 9 10 8 7 12 12
39 40 34 24 35 37 40 47 60 50 42 42 48 53 51 53 53 46 40 38 37 34 34 34 31 28 26 24 22 24 20 19 17 15 14 13 7 9 13 12 9 12 14
38 39 39 35 30 31 43 42 49 57 58 47 45 51 59 58 58 56 46 44 41 39 37 36 34 32 30 28 26 23 22 21 23 23 22 17 17 13 17 17 14 14 16
40 39 39 38 36 32 39 44 46 51 58 63 56 57 64 64 63 62 55 50 49 45 43 41 38 37 34 32 30 28 26 25 27 26 27 28 25 21 19 18 20 19 20
39 41 39 37 34 31 31 41 48 45 55 62 66 71 67 68 69 70 65 57 57 51 49 45 44 41 39 35 33 33 31 30 29 31 31 32 32 31 26 26 25 26 26
46 42 43 44 41 35 29 30 39 45 50 55 65 71 74 70 76 75 75 67 63 58 57 52 48 47 42 39 35 36 37 36 37 36 36 36 37 37 37 33 28 25 28
48 49 46 44 45 40 35 30 31 40 48 48 57 67 70 77 66 75 83 74 69 61 62 63 63 50 48 43 42 38 39 41 42 47 44 43 42 38 41 45 40 36 32
49 51 49 47 44 43 41 34 31 29 37 49 45 54 66 69 72 65 70 86 70 76 61 69 71 71 55 48 52 44 32 40 36 36 46 49 46 47 42 44 50 48 43
47 47 47 47 45 42 44 39 37 32 32 30 44 42 49 72 67 76 60 65 88 74 72 66 69 70 64 60 48 57 62 36 31 29 30 40 50 50 50 46 47 56 55
43 44 46 48 45 44 43 41 38 36 35 35 35 53 59 46 55 64 66 59 73 80 72 75 61 75 69 65 65 49 52 60 56 47 45 25 32 47 51 53 53 50 57
41 42 43 48 48 46 45 42 39 39 39 40 37 37 40 47 51 70 88 56 54 58 63 70 76 75 83 76 73 70 63 55 65 59 55 53 45 36 43 51 53 56 54
Wind_Direction_500mb
150 154 147 153 159 166 164 164 162 158 147 137 132 131 128 128 128 127 129 127 121 123 124 119 118 119 118 117 115 115 114 113 110 109 107 105 102 102 101 96 96 102 104
151 151 142 152 152 157 163 164 165 158 150 143 141 136 133 134 133 132 133 132 130 127 122 123 121 120 118 116 118 117 116 116 110 104 103 101 102 100 98 99 102 102 103
144 147 142 151 152 158 166 168 166 161 155 152 148 140 135 136 136 135 135 135 130 127 126 125 121 119 115 114 115 115 117 115 114 105 98 100 100 103 103 101 103 103 105
143 146 144 149 151 160 167 170 170 166 166 161 151 142 140 139 135 136 133 132 131 129 126 121 117 116 111 114 116 115 115 113 105 86 102 102 101 104 104 106 107 103 102
144 145 146 148 149 155 166 170 173 176 169 159 150 144 141 138 136 136 133 131 129 126 122 121 119 115 114 113 114 114 112 109 94 101 104 107 103 107 104 103 103 106 103
143 148 146 147 145 150 159 168 173 171 165 156 148 147 145 141 139 137 130 126 126 124 123 122 120 118 116 114 114 113 112 113 103 112 107 110 116 108 107 103 99 99 99
142 151 149 149 146 148 155 164 168 166 162 156 152 151 147 145 142 135 130 128 127 127 125 124 123 122 120 119 117 113 108 109 110 109 109 108 114 115 111 107 108 104 101
146 155 156 157 157 150 148 160 168 167 164 161 158 153 151 148 142 137 133 133 133 130 127 126 125 125 125 123 117 113 112 108 108 110 110 123 118 115 112 111 114 111 106
157 162 165 166 167 164 156 160 174 173 171 168 163 158 155 153 149 142 137 137 135 131 128 127 128 127 125 121 117 116 114 112 113 118 121 122 118 116 114 111 107 111 112
154 167 171 175 177 178 174 171 178 182 179 175 170 166 164 162 159 153 147 147 142 138 133 131 129 126 123 120 117 115 114 105 118 113 126 126 118 113 110 106 105 111 112
161 170 178 180 189 194 192 188 188 190 190 186 183 180 174 171 171 167 166 157 151 147 143 138 134 131 128 124 122 121 113 126 123 126 129 121 119 113 110 106 103 101 105
209 195 204 197 200 204 198 204 199 200 200 195 193 192 177 187 179 174 184 173 163 157 156 153 146 139 130 127 126 124 104 141 125 126 161 125 119 119 119 117 113 113 116
309 259 243 223 214 210 206 209 205 205 201 204 202 198 196 194 200 190 193 188 181 170 170 172 167 154 161 157 155 146 149 116 141 135 147 132 124 128 131 124 119 125 124
352 225 231 241 247 230 218 220 215 210 213 213 215 212 205 203 205 196 199 199 198 193 192 182 186 189 175 171 172 162 146 144 144 144 159 145 136 133 136 132 133 141 137
354 272 238 236 238 247 236 232 221 219 222 219 222 223 213 210 214 209 206 205 204 207 207 203 202 197 193 185 182 181 168 167 161 155 178 169 153 147 150 149 150 156 148
5 360 302 267 247 244 248 239 233 233 229 231 228 228 226 221 219 217 216 213 213 213 211 213 214 213 209 206 201 196 202 203 196 185 179 202 185 179 179 180 173 172 166
359 356 356 326 271 245 248 252 254 240 234 235 233 237 234 231 229 221 222 224 221 222 216 218 221 220 220 220 214 214 211 216 219 216 203 203 211 217 209 199 187 190 185
353 349 349 347 320 266 235 245 260 251 242 235 236 238 241 236 232 233 227 228 227 225 226 226 225 226 228 228 226 225 223 224 226 229 221 210 214 226 230 213 203 198 201
353 346 343 342 335 317 258 253 254 262 262 248 242 242 242 240 238 235 231 230 229 229 229 227 229 226 231 230 232 234 235 234 232 227 225 228 223 214 231 227 220 214 213
357 351 343 343 338 330 301 270 253 261 267 257 246 249 248 244 242 241 235 233 232 228 230 230 228 233 230 235 236 242 242 242 236 233 230 228 228 231 219 231 228 225 225
3 357 350 347 341 342 330 299 264 259 252 268 252 255 259 255 249 243 241 238 233 229 228 230 229 229 235 232 236 240 244 247 241 237 236 231 228 232 233 228 224 226 238
4 2 356 351 347 345 340 331 307 272 268 260 269 267 263 261 253 250 244 238 236 232 229 229 232 229 234 233 230 241 247 251 250 244 237 236 230 229 231 238 235 226 221
6 3 1 357 350 344 337 335 326 300 275 268 275 271 272 271 260 250 249 244 235 237 231 234 234 236 231 232 232 228 240 248 253 248 240 235 235 232 231 233 241 240 237
4 3 1 359 357 351 339 340 336 337 321 284 258 268 273 264 266 259 257 255 245 235 237 236 237 237 235 233 236 233 231 247 251 249 242 241 235 235 235 232 236 242 243
355 358 359 359 355 357 354 343 342 333 325 305 296 266 265 271 252 265 258 260 247 239 239 244 238 246 240 237 236 240 238 238 241 248 259 253 242 236 238 240 235 238 245
347 351 355 357 356 356 358 355 346 338 330 320 310 303 287 271 270 276 242 239 242 248 251 252 254 249 251 245 244 237 239 238 238 241 247 250 254 258 244 235 239 240 241
Wind_Speed_850mb
29 29 30 28 27 33 41 39 37 33 29 24 22 25 32 34 33 29 28 30 29 30 33 34 34 36 39 40 39 39 39 41 40 42 44 43 40 40 39 41 39 40 40
36 32 30 27 30 35 38 36 34 32 26 21 20 25 31 30 29 28 26 25 28 34 36 35 33 35 37 36 35 34 35 40 41 42 39 39 39 39 40 39 42 41 40
36 35 33 28 33 36 34 33 32 28 22 19 21 26 28 27 25 24 26 29 33 34 34 35 37 36 35 34 35 35 39 39 41 45 40 35 36 37 38 38 37 36 36
36 38 35 31 32 33 33 31 29 25 20 20 24 27 27 25 24 24 26 32 35 36 38 39 37 35 36 33 33 34 33 34 43 45 32 31 32 33 33 34 33 33 34
35 35 36 31 30 28 29 28 26 22 22 23 25 26 25 24 24 26 29 33 35 37 38 38 36 34 32 31 31 30 31 35 48 30 29 29 27 29 30 30 30 31 31
32 33 34 29 25 25 24 23 23 22 23 24 25 26 25 24 25 27 31 34 36 37 37 36 35 33 32 30 28 25 26 29 35 27 27 30 26 27 27 29 28 29 27
28 32 33 27 21 21 19 16 19 20 21 23 24 24 24 24 25 28 32 35 36 35 34 35 34 33 31 28 27 24 21 24 23 24 25 25 25 24 24 26 25 25 24
25 35 34 29 21 17 16 13 16 19 21 21 22 22 21 22 25 29 32 32 33 34 33 33 33 32 30 28 26 24 22 22 22 23 26 23 23 21 22 22 21 22 21
27 31 33 29 24 18 15 13 13 17 19 21 20 20 20 22 25 29 30 30 35 33 32 32 33 32 30 28 26 24 22 23 19 19 25 22 22 20 18 18 17 22 21
20 25 29 27 24 21 18 15 14 16 18 20 20 20 20 21 24 28 28 32 32 31 30 31 33 32 30 28 26 24 22 22 18 17 15 20 19 17 16 17 19 20 19
15 17 20 22 26 25 21 19 16 18 20 22 22 22 22 22 26 27 28 32 31 29 29 32 33 32 30 29 26 23 22 13 16 14 11 17 18 15 15 15 16 16 16
9 14 15 22 24 27 22 24 22 22 23 25 27 27 23 23 24 26 29 32 30 30 30 30 30 27 24 21 22 23 14 15 13 15 11 13 16 15 13 13 12 13 15
8 11 21 24 27 29 23 26 25 26 25 28 31 31 25 26 29 29 32 34 32 31 30 30 28 23 16 15 13 12 13 15 11 12 11 11 15 13 12 11 10 11 13
5 9 16 22 31 37 27 31 27 27 30 30 35 39 31 29 31 28 28 29 28 28 24 25 22 21 21 19 18 14 14 12 10 10 9 10 12 12 10 10 9 12 13
20 14 19 28 30 41 42 34 36 35 37 34 37 43 39 33 33 32 31 32 31 29 27 26 23 23 23 19 19 17 12 12 11 10 8 8 10 10 9 7 7 12 11
36 27 24 34 33 36 46 47 39 39 38 47 43 44 48 45 37 37 35 35 33 32 29 29 26 23 22 21 22 20 17 14 11 10 10 7 8 9 10 8 7 12 12
39 40 34 24 35 37 40 47 60 50 42 42 48 53 51 53 53 46 40 38 37 34 34 34 31 28 26 24 22 24 20 19 17 15 14 13 7 9 13 12 9 12 14
38 39 39 35 30 31 43 42 49 57 58 47 45 51 59 58 58 56 46 44 41 39 37 36 34 32 30 28 26 23 22 21 23 23 22 17 17 13 17 17 14 14 16
40 39 39 38 36 32 39 44 46 51 58 63 56 57 64 64 63 62 55 50 49 45 43 41 38 37 34 32 30 28 26 25 27 26 27 28 25 21 19 18 20 19 20
39 41 39 37 34 31 31 41 48 45 55 62 66 71 67 68 69 70 65 57 57 51 49 45 44 41 39 35 33 33 31 30 29 31 31 32 32 31 26 26 25 26 26
46 42 43 44 41 35 29 30 39 45 50 55 65 71 74 70 76 75 75 67 63 58 57 52 48 47 42 39 35 36 37 36 37 36 36 36 37 37 37 33 28 25 28
48 49 46 44 45 40 35 30 31 40 48 48 57 67 70 77 66 75 83 74 69 61 62 63 63 50 48 43 42 38 39 41 42 47 44 43 42 38 41 45 40 36 32
49 51 49 47 44 43 41 34 31 29 37 49 45 54 66 69 72 65 70 86 70 76 61 69 71 71 55 48 52 44 32 40 36 36 46 49 46 47 42 44 50 48 43
47 47 47 47 45 42 44 39 37 32 32 30 44 42 49 72 67 76 60 65 88 74 72 66 69 70 64 60 48 57 62 36 31 29 30 40 50 50 50 46 47 56 55
43 44 46 48 45 44 43 41 38 36 35 35 35 53 59 46 55 64 66 59 73 80 72 75 61 75 69 65 65 49 52 60 56 47 45 25 32 47 51 53 53 50 57
41 42 43 48 48 46 45 42 39 39 39 40 37 37 40 47 51 70 88 56 54 58 63 70 76 75 83 76 73 70 63 55 65 59 55 53 45 36 43 51 53 56 54
Wind_Direction_850mb
150 154 147 153 159 166 164 164 162 158 147 137 132 131 128 128 128 127 129 127 121 123 124 119 118 119 118 117 115 115 114 113 110 109 107 105 102 102 101 96 96 102 104
151 151 142 152 152 157 163 164 165 158 150 143 141 136 133 134 133 132 133 132 130 127 122 123 121 120 118 116 118 117 116 116 110 104 103 101 102 100 98 99 102 102 103
144 147 142 151 152 158 166 168 166 161 155 152 148 140 135 136 136 135 135 135 130 127 126 125 121 119 115 114 115 115 117 115 114 105 98 100 100 103 103 101 103 103 105
143 146 144 149 151 160 167 170 170 166 166 161 151 142 140 139 135 136 133 132 131 129 126 121 117 116 111 114 116 115 115 113 105 86 102 102 101 104 104 106 107 103 102
144 145 146 148 149 155 166 170 173 176 169 159 150 144 141 138 136 136 133 131 129 126 122 121 119 115 114 113 114 114 112 109 94 101 104 107 103 107 104 103 103 106 103
143 148 146 147 145 150 159 168 173 171 165 156 148 147 145 141 139 137 130 126 126 124 123 122 120 118 116 114 114 113 112 113 103 112 107 110 116 108 107 103 99 99 99
142 151 149 149 146 148 155 164 168 166 162 156 152 151 147 145 142 135 130 128 127 127 125 124 123 122 120 119 117 113 108 109 110 109 109 108 114 115 111 107 108 104 101
146 155 156 157 157 150 148 160 168 167 164 161 158 153 151 148 142 137 133 133 133 130 127 126 125 125 125 123 117 113 112 108 108 110 110 123 118 115 112 111 114 111 106
157 162 165 166 167 164 156 160 174 173 171 168 163 158 155 153 149 142 137 137 135 131 128 127 128 127 125 121 117 116 114 112 113 118 121 122 118 116 114 111 107 111 112
154 167 171 175 177 178 174 171 178 182 179 175 170 166 164 162 159 153 147 147 142 138 133 131 129 126 123 120 117 115 114 105 118 113 126 126 118 113 110 106 105 111 112
161 170 178 180 189 194 192 188 188 190 190 186 183 180 174 171 171 167 166 157 151 147 143 138 134 131 128 124 122 121 113 126 123 126 129 121 119 113 110 106 103 101 105
209 195 204 197 200 204 198 204 199 200 200 195 193 192 177 187 179 174 184 173 163 157 156 153 146 139 130 127 126 124 104 141 125 126 161 125 119 119 119 117 113 113 116
309 259 243 223 214 210 206 209 205 205 201 204 202 198 196 194 200 190 193 188 181 170 170 172 167 154 161 157 155 146 149 116 141 135 147 132 124 128 131 124 119 125 124
352 225 231 241 247 230 218 220 215 210 213 213 215 212 205 203 205 196 199 199 198 193 192 182 186 189 175 171 172 162 146 144 144 144 159 145 136 133 136 132 133 141 137
354 272 238 236 238 247 236 232 221 219 222 219 222 223 213 210 214 209 206 205 204 207 207 203 202 197 193 185 182 181 168 167 161 155 178 169 153 147 150 149 150 156 148
5 360 302 267 247 244 248 239 233 233 229 231 228 228 226 221 219 217 216 213 213 213 211 213 214 213 209 206 201 196 202 203 196 185 179 202 185 179 179 180 173 172 166
359 356 356 326 271 245 248 252 254 240 234 235 233 237 234 231 229 221 222 224 221 222 216 218 221 220 220 220 214 214 211 216 219 216 203 203 211 217 209 199 187 190 185
353 349 349 347 320 266 235 245 260 251 242 235 236 238 241 236 232 233 227 228 227 225 226 226 225 226 228 228 226 225 223 224 226 229 221 210 214 226 230 213 203 198 201
353 346 343 342 335 317 258 253 254 262 262 248 242 242 242 240 238 235 231 230 229 229 229 227 229 226 231 230 232 234 235 234 232 227 225 228 223 214 231 227 220 214 213
357 351 343 343 338 330 301 270 253 261 267 257 246 249 248 244 242 241 235 233 232 228 230 230 228 233 230 235 236 242 242 242 236 233 230 228 228 231 219 231 228 225 225
3 357 350 347 341 342 330 299 264 259 252 268 252 255 259 255 249 243 241 238 233 229 228 230 229 229 235 232 236 240 244 247 241 237 236 231 228 232 233 228 224 226 238
4 2 356 351 347 345 340 331 307 272 268 260 269 267 263 261 253 250 244 238 236 232 229 229 232 229 234 233 230 241 247 251 250 244 237 236 230 229 231 238 235 226 221
6 3 1 357 350 344 337 335 326 300 275 268 275 271 272 271 260 250 249 244 235 237 231 234 234 236 231 232 232 228 240 248 253 248 240 235 235 232 231 233 241 240 237
4 3 1 359 357 351 339 340 336 337 321 284 258 268 273 264 266 259 257 255 245 235 237 236 237 237 235 233 236 233 231 247 251 249 242 241 235 235 235 232 236 242 243
355 358 359 359 355 357 354 343 342 333 325 305 296 266 265 271 252 265 258 260 247 239 239 244 238 246 240 237 236 240 238 238 241 248 259 253 242 236 238 240 235 238 245
347 351 355 357 356 356 358 355 346 338 330 320 310 303 287 271 270 276 242 239 242 248 251 252 254 249 251 245 244 237 239 238 238 241 247 250 254 258 244 235 239 240 241